• In Uzbekistan
  • List of Countries
  • For 7 days
  • Water Temperature
  • Satellite Maps
  • Weather Map
  • Weather Widgets
  • user-avatar
    Login

    Hourly Weather Las Margaritas

    Today, 24 February, Saturday

    Time Temperature Precipitation Wind Pressure Humidity
    00:00 +14°C° 0 mm 1 mps 637 mmHg 86%
    01:00 +14°C° 0 mm 1 mps 637 mmHg 87%
    02:00 +13°C° 0 mm 1 mps 636 mmHg 87%
    03:00 +13°C° 0 mm 1 mps 636 mmHg 88%
    04:00 +13°C° 0 mm 1 mps 636 mmHg 88%
    05:00 +12°C° 0 mm 1 mps 636 mmHg 88%
    06:00 +12°C° 0 mm 1 mps 636 mmHg 89%
    07:00 +15°C° 0 mm 1 mps 637 mmHg 78%
    08:00 +18°C° 0 mm 1 mps 638 mmHg 67%
    09:00 +21°C° 0 mm 1 mps 639 mmHg 57%
    10:00 +23°C° 0 mm 1 mps 639 mmHg 49%
    11:00 +25°C° 0 mm 1 mps 639 mmHg 42%
    12:00 +28°C° 0 mm 2 mps 640 mmHg 35%
    13:00 +27°C° 0 mm 2 mps 639 mmHg 35%
    14:00 +27°C° 0 mm 2 mps 639 mmHg 35%
    15:00 +27°C° 0 mm 2 mps 638 mmHg 35%
    16:00 +25°C° 0 mm 2 mps 638 mmHg 43%
    17:00 +23°C° 0 mm 1 mps 637 mmHg 51%
    18:00 +21°C° 0 mm 1 mps 637 mmHg 59%
    19:00 +20°C° 0 mm 1 mps 637 mmHg 66%
    20:00 +19°C° 0 mm 1 mps 637 mmHg 74%
    21:00 +16°C° 0 mm 1 mps 636 mmHg 81%
    22:00 +16°C° 0 mm 1 mps 636 mmHg 83%
    23:00 +14°C° 0 mm 0 mps 637 mmHg 85%

    Tomorrow, 25 February, Sunday

    Time Temperature Precipitation Wind Pressure Humidity
    00:00 +14°C° 0 mm 0 mps 637 mmHg 87%
    01:00 +14°C° 0 mm 0 mps 636 mmHg 88%
    02:00 +14°C° 0 mm 1 mps 636 mmHg 89%
    03:00 +14°C° 0 mm 1 mps 635 mmHg 90%
    04:00 +14°C° 0 mm 1 mps 635 mmHg 90%
    05:00 +14°C° 0 mm 1 mps 635 mmHg 91%
    06:00 +14°C° 0 mm 1 mps 635 mmHg 91%
    07:00 +15°C° 0 mm 0 mps 637 mmHg 80%
    08:00 +18°C° 0 mm 0 mps 638 mmHg 69%
    09:00 +20°C° 0 mm 0 mps 639 mmHg 57%
    10:00 +24°C° 0 mm 1 mps 639 mmHg 49%
    11:00 +26°C° 0 mm 1 mps 640 mmHg 41%
    12:00 +28°C° 0 mm 2 mps 640 mmHg 32%
    13:00 +28°C° 0 mm 2 mps 639 mmHg 32%
    14:00 +28°C° 0 mm 2 mps 638 mmHg 32%
    15:00 +27°C° 0 mm 2 mps 638 mmHg 31%
    16:00 +26°C° 0 mm 2 mps 637 mmHg 37%
    17:00 +24°C° 0 mm 1 mps 637 mmHg 42%
    18:00 +22°C° 0 mm 1 mps 636 mmHg 48%
    19:00 +20°C° 0 mm 1 mps 637 mmHg 52%
    20:00 +18°C° 0 mm 1 mps 637 mmHg 57%
    21:00 +16°C° 0 mm 1 mps 637 mmHg 61%
    22:00 +15°C° 0 mm 1 mps 637 mmHg 63%
    23:00 +15°C° 0 mm 1 mps 637 mmHg 66%

    Day after tomorrow, 26 February, Monday

    Time Temperature Precipitation Wind Pressure Humidity
    00:00 +14°C° 0 mm 1 mps 637 mmHg 68%
    01:00 +14°C° 0 mm 1 mps 636 mmHg 70%
    02:00 +13°C° 0 mm 1 mps 636 mmHg 73%
    03:00 +13°C° 0 mm 1 mps 635 mmHg 75%
    04:00 +13°C° 0 mm 1 mps 635 mmHg 76%
    05:00 +12°C° 0 mm 1 mps 636 mmHg 77%
    06:00 +12°C° 0 mm 1 mps 636 mmHg 77%
    07:00 +15°C° 0 mm 1 mps 637 mmHg 64%
    08:00 +20°C° 0 mm 1 mps 639 mmHg 51%
    09:00 +21°C° 0 mm 0 mps 640 mmHg 38%
    10:00 +25°C° 0 mm 1 mps 640 mmHg 32%
    11:00 +27°C° 0 mm 1 mps 641 mmHg 26%
    12:00 +29°C° 0 mm 1 mps 641 mmHg 20%
    13:00 +28°C° 0 mm 2 mps 640 mmHg 20%
    14:00 +28°C° 0 mm 2 mps 639 mmHg 20%
    15:00 +28°C° 0 mm 3 mps 639 mmHg 21%
    16:00 +26°C° 0 mm 3 mps 638 mmHg 29%
    17:00 +24°C° 0 mm 2 mps 638 mmHg 37%
    18:00 +20°C° 0 mm 2 mps 637 mmHg 45%
    19:00 +19°C° 0 mm 2 mps 637 mmHg 54%
    20:00 +17°C° 0 mm 2 mps 637 mmHg 63%
    21:00 +15°C° 0 mm 2 mps 638 mmHg 72%
    22:00 +15°C° 0 mm 2 mps 638 mmHg 74%
    23:00 +15°C° 0 mm 1 mps 638 mmHg 76%

    27 February, Tuesday

    Time Temperature Precipitation Wind Pressure Humidity
    00:00 +15°C° 0 mm 1 mps 638 mmHg 78%
    01:00 +14°C° 0 mm 1 mps 637 mmHg 79%
    02:00 +14°C° 0 mm 1 mps 637 mmHg 81%
    03:00 +13°C° 0 mm 1 mps 636 mmHg 82%
    04:00 +13°C° 0 mm 1 mps 636 mmHg 81%
    05:00 +12°C° 0 mm 1 mps 636 mmHg 80%
    06:00 +11°C° 0 mm 1 mps 636 mmHg 79%
    07:00 +14°C° 0 mm 1 mps 637 mmHg 66%
    08:00 +18°C° 0 mm 1 mps 639 mmHg 52%
    09:00 +21°C° 0 mm 1 mps 640 mmHg 39%
    10:00 +23°C° 0 mm 2 mps 640 mmHg 34%
    11:00 +25°C° 0 mm 2 mps 640 mmHg 29%
    12:00 +26°C° 0 mm 3 mps 641 mmHg 24%
    13:00 +27°C° 0 mm 3 mps 640 mmHg 26%
    14:00 +27°C° 0 mm 3 mps 639 mmHg 28%
    15:00 +27°C° 0 mm 3 mps 638 mmHg 30%
    16:00 +25°C° 0 mm 3 mps 638 mmHg 40%
    17:00 +21°C° 0 mm 3 mps 637 mmHg 49%
    18:00 +19°C° 0 mm 3 mps 637 mmHg 59%
    19:00 +18°C° 0 mm 2 mps 637 mmHg 66%
    20:00 +16°C° 0 mm 2 mps 637 mmHg 74%
    21:00 +15°C° 0 mm 2 mps 637 mmHg 82%
    22:00 +14°C° 0 mm 1 mps 637 mmHg 83%
    23:00 +14°C° 0 mm 1 mps 637 mmHg 84%

    28 February, Wednesday

    Time Temperature Precipitation Wind Pressure Humidity
    00:00 +13°C° 0 mm 1 mps 636 mmHg 85%
    01:00 +13°C° 0 mm 1 mps 636 mmHg 86%
    02:00 +12°C° 0 mm 1 mps 635 mmHg 86%
    03:00 +12°C° 0 mm 1 mps 635 mmHg 86%
    04:00 +12°C° 0 mm 1 mps 635 mmHg 85%
    05:00 +11°C° 0 mm 1 mps 635 mmHg 84%
    06:00 +11°C° 0 mm 1 mps 635 mmHg 83%
    07:00 +14°C° 0 mm 1 mps 636 mmHg 70%
    08:00 +18°C° 0 mm 1 mps 637 mmHg 58%
    09:00 +21°C° 0 mm 1 mps 639 mmHg 45%
    10:00 +23°C° 0 mm 1 mps 639 mmHg 39%
    11:00 +25°C° 0 mm 1 mps 639 mmHg 33%
    12:00 +28°C° 0 mm 1 mps 639 mmHg 28%
    13:00 +28°C° 0 mm 2 mps 638 mmHg 28%
    14:00 +28°C° 0 mm 2 mps 638 mmHg 28%
    15:00 +28°C° 0 mm 2 mps 637 mmHg 27%
    16:00 +26°C° 0 mm 2 mps 637 mmHg 35%
    17:00 +24°C° 0 mm 1 mps 636 mmHg 43%
    18:00 +22°C° 0 mm 1 mps 636 mmHg 51%
    19:00 +20°C° 0 mm 1 mps 636 mmHg 60%
    20:00 +18°C° 0 mm 1 mps 635 mmHg 68%
    21:00 +15°C° 0 mm 1 mps 635 mmHg 76%
    22:00 +15°C° 0 mm 1 mps 635 mmHg 78%
    23:00 +14°C° 0 mm 1 mps 635 mmHg 81%

    1 March, Thursday

    Time Temperature Precipitation Wind Pressure Humidity
    00:00 +14°C° 0 mm 1 mps 635 mmHg 83%
    01:00 +14°C° 0 mm 1 mps 635 mmHg 85%
    02:00 +14°C° 0 mm 1 mps 634 mmHg 86%
    03:00 +13°C° 0 mm 1 mps 634 mmHg 88%
    04:00 +13°C° 0 mm 1 mps 634 mmHg 88%
    05:00 +13°C° 0 mm 1 mps 634 mmHg 88%
    06:00 +13°C° 0 mm 1 mps 634 mmHg 88%
    07:00 +16°C° 0 mm 1 mps 636 mmHg 75%
    08:00 +20°C° 0 mm 1 mps 637 mmHg 62%
    09:00 +23°C° 0 mm 1 mps 638 mmHg 50%
    10:00 +25°C° 0 mm 1 mps 638 mmHg 43%
    11:00 +27°C° 0 mm 1 mps 639 mmHg 37%
    12:00 +30°C° 0 mm 2 mps 639 mmHg 30%
    13:00 +30°C° 0 mm 2 mps 638 mmHg 30%
    14:00 +30°C° 0 mm 2 mps 638 mmHg 29%
    15:00 +30°C° 0 mm 2 mps 637 mmHg 28%
    16:00 +27°C° 0 mm 2 mps 637 mmHg 36%
    17:00 +25°C° 0 mm 2 mps 637 mmHg 44%
    18:00 +23°C° 0 mm 1 mps 636 mmHg 51%
    19:00 +22°C° 0.1 mm 1 mps 636 mmHg 58%
    20:00 +20°C° 0.1 mm 1 mps 637 mmHg 65%
    21:00 +19°C° 0.1 mm 1 mps 637 mmHg 73%
    22:00 +18°C° 0.1 mm 1 mps 637 mmHg 75%
    23:00 +18°C° 0.1 mm 1 mps 637 mmHg 77%
    Show more